Year,Month,Day,Hour,Minute,Value (Times are PST for insolation in W/m^2)
2008,04,02,00,00,0.00
2008,04,02,00,01,0.00
2008,04,02,00,02,0.00
2008,04,02,00,03,0.00
2008,04,02,00,04,0.00
2008,04,02,00,05,0.00
2008,04,02,00,06,0.00
2008,04,02,00,07,0.00
2008,04,02,00,08,0.00
2008,04,02,00,09,0.00
2008,04,02,00,10,0.00
2008,04,02,00,11,0.00
2008,04,02,00,12,0.00
2008,04,02,00,13,0.00
2008,04,02,00,14,0.00
2008,04,02,00,15,0.00
2008,04,02,00,16,0.00
2008,04,02,00,17,0.00
2008,04,02,00,18,0.00
2008,04,02,00,19,0.00
2008,04,02,00,20,0.00
2008,04,02,00,21,0.00
2008,04,02,00,22,0.00
2008,04,02,00,23,0.00
2008,04,02,00,24,0.00
2008,04,02,00,25,0.00
2008,04,02,00,26,0.00
2008,04,02,00,27,0.00
2008,04,02,00,28,0.00
2008,04,02,00,29,0.00
2008,04,02,00,30,0.00
2008,04,02,00,31,0.00
2008,04,02,00,32,0.00
2008,04,02,00,33,0.00
2008,04,02,00,34,0.00
2008,04,02,00,35,0.00
2008,04,02,00,36,0.00
2008,04,02,00,37,0.00
2008,04,02,00,38,0.00
2008,04,02,00,39,0.00
2008,04,02,00,40,0.00
2008,04,02,00,41,0.00
2008,04,02,00,42,0.00
2008,04,02,00,43,0.00
2008,04,02,00,44,0.00
2008,04,02,00,45,0.00
2008,04,02,00,46,0.00
2008,04,02,00,47,0.00
2008,04,02,00,48,0.00
2008,04,02,00,49,0.00
2008,04,02,00,50,0.00
2008,04,02,00,51,0.00
2008,04,02,00,52,0.00
2008,04,02,00,53,0.00
2008,04,02,00,54,0.00
2008,04,02,00,55,0.00
2008,04,02,00,56,0.00
2008,04,02,00,57,0.00
2008,04,02,00,58,0.00
2008,04,02,00,59,0.00
2008,04,02,01,00,0.00
2008,04,02,01,01,0.00
2008,04,02,01,02,0.00
2008,04,02,01,03,0.00
2008,04,02,01,04,0.00
2008,04,02,01,05,0.00
2008,04,02,01,06,0.00
2008,04,02,01,07,0.00
2008,04,02,01,08,0.00
2008,04,02,01,09,0.00
2008,04,02,01,10,0.00
2008,04,02,01,11,0.00
2008,04,02,01,12,0.00
2008,04,02,01,13,0.00
2008,04,02,01,14,0.00
2008,04,02,01,15,0.00
2008,04,02,01,16,0.00
2008,04,02,01,17,0.00
2008,04,02,01,18,0.00
2008,04,02,01,19,0.00
2008,04,02,01,20,0.00
2008,04,02,01,21,0.00
2008,04,02,01,22,0.00
2008,04,02,01,23,0.00
2008,04,02,01,24,0.00
2008,04,02,01,25,0.00
2008,04,02,01,26,0.00
2008,04,02,01,27,0.00
2008,04,02,01,28,0.00
2008,04,02,01,29,0.00
2008,04,02,01,30,0.00
2008,04,02,01,31,0.00
2008,04,02,01,32,0.00
2008,04,02,01,33,0.00
2008,04,02,01,34,0.00
2008,04,02,01,35,0.00
2008,04,02,01,36,0.00
2008,04,02,01,37,0.00
2008,04,02,01,38,0.00
2008,04,02,01,39,0.00
2008,04,02,01,40,0.00
2008,04,02,01,41,0.00
2008,04,02,01,42,0.00
2008,04,02,01,43,0.00
2008,04,02,01,44,0.00
2008,04,02,01,45,0.00
2008,04,02,01,46,0.00
2008,04,02,01,47,0.00
2008,04,02,01,48,0.00
2008,04,02,01,49,0.00
2008,04,02,01,50,0.00
2008,04,02,01,51,0.00
2008,04,02,01,52,0.00
2008,04,02,01,53,0.00
2008,04,02,01,54,0.00
2008,04,02,01,55,0.00
2008,04,02,01,56,0.00
2008,04,02,01,57,0.00
2008,04,02,01,58,0.00
2008,04,02,01,59,0.00
2008,04,02,02,00,0.00
2008,04,02,02,01,0.00
2008,04,02,02,02,0.00
2008,04,02,02,03,0.00
2008,04,02,02,04,0.00
2008,04,02,02,05,0.00
2008,04,02,02,06,0.00
2008,04,02,02,07,0.00
2008,04,02,02,08,0.00
2008,04,02,02,09,0.00
2008,04,02,02,10,0.00
2008,04,02,02,11,0.00
2008,04,02,02,12,0.00
2008,04,02,02,13,0.00
2008,04,02,02,14,0.00
2008,04,02,02,15,0.00
2008,04,02,02,16,0.00
2008,04,02,02,17,0.00
2008,04,02,02,18,0.00
2008,04,02,02,19,0.00
2008,04,02,02,20,0.00
2008,04,02,02,21,0.00
2008,04,02,02,22,0.00
2008,04,02,02,23,0.00
2008,04,02,02,24,0.00
2008,04,02,02,25,0.00
2008,04,02,02,26,0.00
2008,04,02,02,27,0.00
2008,04,02,02,28,0.00
2008,04,02,02,29,0.00
2008,04,02,02,30,0.00
2008,04,02,02,31,0.00
2008,04,02,02,32,0.00
2008,04,02,02,33,0.00
2008,04,02,02,34,0.00
2008,04,02,02,35,0.00
2008,04,02,02,36,0.00
2008,04,02,02,37,0.00
2008,04,02,02,38,0.00
2008,04,02,02,39,0.00
2008,04,02,02,40,0.00
2008,04,02,02,41,0.00
2008,04,02,02,42,0.00
2008,04,02,02,43,0.00
2008,04,02,02,44,0.00
2008,04,02,02,45,0.00
2008,04,02,02,46,0.00
2008,04,02,02,47,0.00
2008,04,02,02,48,0.00
2008,04,02,02,49,0.00
2008,04,02,02,50,0.00
2008,04,02,02,51,0.00
2008,04,02,02,52,0.00
2008,04,02,02,53,0.00
2008,04,02,02,54,0.00
2008,04,02,02,55,0.00
2008,04,02,02,56,0.00
2008,04,02,02,57,0.00
2008,04,02,02,58,0.00
2008,04,02,02,59,0.00
2008,04,02,03,00,0.00
2008,04,02,03,01,0.00
2008,04,02,03,02,0.00
2008,04,02,03,03,0.00
2008,04,02,03,04,0.00
2008,04,02,03,05,0.00
2008,04,02,03,06,0.00
2008,04,02,03,07,0.00
2008,04,02,03,08,0.00
2008,04,02,03,09,0.00
2008,04,02,03,10,0.00
2008,04,02,03,11,0.00
2008,04,02,03,12,0.00
2008,04,02,03,13,0.00
2008,04,02,03,14,0.00
2008,04,02,03,15,0.00
2008,04,02,03,16,0.00
2008,04,02,03,17,0.00
2008,04,02,03,18,0.00
2008,04,02,03,19,0.00
2008,04,02,03,20,0.00
2008,04,02,03,21,0.00
2008,04,02,03,22,0.00
2008,04,02,03,23,0.00
2008,04,02,03,24,0.00
2008,04,02,03,25,0.00
2008,04,02,03,26,0.00
2008,04,02,03,27,0.00
2008,04,02,03,28,0.00
2008,04,02,03,29,0.00
2008,04,02,03,30,0.00
2008,04,02,03,31,0.00
2008,04,02,03,32,0.00
2008,04,02,03,33,0.00
2008,04,02,03,34,0.00
2008,04,02,03,35,0.00
2008,04,02,03,36,0.00
2008,04,02,03,37,0.00
2008,04,02,03,38,0.00
2008,04,02,03,39,0.00
2008,04,02,03,40,0.00
2008,04,02,03,41,0.00
2008,04,02,03,42,0.00
2008,04,02,03,43,0.00
2008,04,02,03,44,0.00
2008,04,02,03,45,0.00
2008,04,02,03,46,0.00
2008,04,02,03,47,0.00
2008,04,02,03,48,0.00
2008,04,02,03,49,0.00
2008,04,02,03,50,0.00
2008,04,02,03,51,0.00
2008,04,02,03,52,0.00
2008,04,02,03,53,0.00
2008,04,02,03,54,0.00
2008,04,02,03,55,0.00
2008,04,02,03,56,0.00
2008,04,02,03,57,0.00
2008,04,02,03,58,0.00
2008,04,02,03,59,0.00
2008,04,02,04,00,0.00
2008,04,02,04,01,0.00
2008,04,02,04,02,0.00
2008,04,02,04,03,0.00
2008,04,02,04,04,0.00
2008,04,02,04,05,0.00
2008,04,02,04,06,0.00
2008,04,02,04,07,0.00
2008,04,02,04,08,0.00
2008,04,02,04,09,0.00
2008,04,02,04,10,0.00
2008,04,02,04,11,0.00
2008,04,02,04,12,0.00
2008,04,02,04,13,0.00
2008,04,02,04,14,0.00
2008,04,02,04,15,0.00
2008,04,02,04,16,0.00
2008,04,02,04,17,0.00
2008,04,02,04,18,0.00
2008,04,02,04,19,0.00
2008,04,02,04,20,0.00
2008,04,02,04,21,0.00
2008,04,02,04,22,0.00
2008,04,02,04,23,0.00
2008,04,02,04,24,0.00
2008,04,02,04,25,0.00
2008,04,02,04,26,0.00
2008,04,02,04,27,0.00
2008,04,02,04,28,0.00
2008,04,02,04,29,0.00
2008,04,02,04,30,0.00
2008,04,02,04,31,0.00
2008,04,02,04,32,0.00
2008,04,02,04,33,0.00
2008,04,02,04,34,0.00
2008,04,02,04,35,0.00
2008,04,02,04,36,0.00
2008,04,02,04,37,0.00
2008,04,02,04,38,0.00
2008,04,02,04,39,0.00
2008,04,02,04,40,0.00
2008,04,02,04,41,0.00
2008,04,02,04,42,0.00
2008,04,02,04,43,0.00
2008,04,02,04,44,0.00
2008,04,02,04,45,0.00
2008,04,02,04,46,0.00
2008,04,02,04,47,0.00
2008,04,02,04,48,0.00
2008,04,02,04,49,0.00
2008,04,02,04,50,0.00
2008,04,02,04,51,0.00
2008,04,02,04,52,0.00
2008,04,02,04,53,0.00
2008,04,02,04,54,0.00
2008,04,02,04,55,0.00
2008,04,02,04,56,0.00
2008,04,02,04,57,0.00
2008,04,02,04,58,0.00
2008,04,02,04,59,0.00
2008,04,02,05,00,0.00
2008,04,02,05,01,0.00
2008,04,02,05,02,0.00
2008,04,02,05,03,0.00
2008,04,02,05,04,0.00
2008,04,02,05,05,0.00
2008,04,02,05,06,0.00
2008,04,02,05,07,0.00
2008,04,02,05,08,0.00
2008,04,02,05,09,0.00
2008,04,02,05,10,0.00
2008,04,02,05,11,0.00
2008,04,02,05,12,0.00
2008,04,02,05,13,0.00
2008,04,02,05,14,0.00
2008,04,02,05,15,0.00
2008,04,02,05,16,0.00
2008,04,02,05,17,0.00
2008,04,02,05,18,0.00
2008,04,02,05,19,0.00
2008,04,02,05,20,0.00
2008,04,02,05,21,0.00
2008,04,02,05,22,0.00
2008,04,02,05,23,0.00
2008,04,02,05,24,0.00
2008,04,02,05,25,0.00
2008,04,02,05,26,0.00
2008,04,02,05,27,0.00
2008,04,02,05,28,0.00
2008,04,02,05,29,0.00
2008,04,02,05,30,0.00
2008,04,02,05,31,0.00
2008,04,02,05,32,0.00
2008,04,02,05,33,0.00
2008,04,02,05,34,0.00
2008,04,02,05,35,0.00
2008,04,02,05,36,0.00
2008,04,02,05,37,0.00
2008,04,02,05,38,0.00
2008,04,02,05,39,0.00
2008,04,02,05,40,0.00
2008,04,02,05,41,0.00
2008,04,02,05,42,0.00
2008,04,02,05,43,0.00
2008,04,02,05,44,0.00
2008,04,02,05,45,0.00
2008,04,02,05,46,0.00
2008,04,02,05,47,0.00
2008,04,02,05,48,0.00
2008,04,02,05,49,0.00
2008,04,02,05,50,0.00
2008,04,02,05,51,0.00
2008,04,02,05,52,0.00
2008,04,02,05,53,0.00
2008,04,02,05,54,0.00
2008,04,02,05,55,0.00
2008,04,02,05,56,0.00
2008,04,02,05,57,0.00
2008,04,02,05,58,0.00
2008,04,02,05,59,0.00
2008,04,02,06,00,0.00
2008,04,02,06,01,0.00
2008,04,02,06,02,0.00
2008,04,02,06,03,0.00
2008,04,02,06,04,0.00
2008,04,02,06,05,0.00
2008,04,02,06,06,0.00
2008,04,02,06,07,0.00
2008,04,02,06,08,0.00
2008,04,02,06,09,0.00
2008,04,02,06,10,0.00
2008,04,02,06,11,0.00
2008,04,02,06,12,0.00
2008,04,02,06,13,0.00
2008,04,02,06,14,0.00
2008,04,02,06,15,0.00
2008,04,02,06,16,0.00
2008,04,02,06,17,0.00
2008,04,02,06,18,0.00
2008,04,02,06,19,0.00
2008,04,02,06,20,0.00
2008,04,02,06,21,0.00
2008,04,02,06,22,0.00
2008,04,02,06,23,0.00
2008,04,02,06,24,0.00
2008,04,02,06,25,0.00
2008,04,02,06,26,0.00
2008,04,02,06,27,0.00
2008,04,02,06,28,0.00
2008,04,02,06,29,0.00
2008,04,02,06,30,0.00
2008,04,02,06,31,0.00
2008,04,02,06,32,0.00
2008,04,02,06,33,0.00
2008,04,02,06,34,0.00
2008,04,02,06,35,0.00
2008,04,02,06,36,0.00
2008,04,02,06,37,0.00
2008,04,02,06,38,0.00
2008,04,02,06,39,0.00
2008,04,02,06,40,0.00
2008,04,02,06,41,0.00
2008,04,02,06,42,0.00
2008,04,02,06,43,0.00
2008,04,02,06,44,0.00
2008,04,02,06,45,0.00
2008,04,02,06,46,0.00
2008,04,02,06,47,0.00
2008,04,02,06,48,0.00
2008,04,02,06,49,0.00
2008,04,02,06,50,0.00
2008,04,02,06,51,0.00
2008,04,02,06,52,2.80
2008,04,02,06,53,5.00
2008,04,02,06,54,5.00
2008,04,02,06,55,5.00
2008,04,02,06,56,7.00
2008,04,02,06,57,7.00
2008,04,02,06,58,7.40
2008,04,02,06,59,9.00
2008,04,02,07,00,9.00
2008,04,02,07,01,10.10
2008,04,02,07,02,11.00
2008,04,02,07,03,11.00
2008,04,02,07,04,11.90
2008,04,02,07,05,12.00
2008,04,02,07,06,14.10
2008,04,02,07,07,16.50
2008,04,02,07,08,18.40
2008,04,02,07,09,19.00
2008,04,02,07,10,21.70
2008,04,02,07,11,24.50
2008,04,02,07,12,25.00
2008,04,02,07,13,26.00
2008,04,02,07,14,28.10
2008,04,02,07,15,30.00
2008,04,02,07,16,30.90
2008,04,02,07,17,33.00
2008,04,02,07,18,33.00
2008,04,02,07,19,33.00
2008,04,02,07,20,33.00
2008,04,02,07,21,33.00
2008,04,02,07,22,33.00
2008,04,02,07,23,33.90
2008,04,02,07,24,40.00
2008,04,02,07,25,41.90
2008,04,02,07,26,46.50
2008,04,02,07,27,47.00
2008,04,02,07,28,51.50
2008,04,02,07,29,55.10
2008,04,02,07,30,59.20
2008,04,02,07,31,62.00
2008,04,02,07,32,63.30
2008,04,02,07,33,65.50
2008,04,02,07,34,67.00
2008,04,02,07,35,64.90
2008,04,02,07,36,62.30
2008,04,02,07,37,62.80
2008,04,02,07,38,66.70
2008,04,02,07,39,68.60
2008,04,02,07,40,74.40
2008,04,02,07,41,81.70
2008,04,02,07,42,86.00
2008,04,02,07,43,89.90
2008,04,02,07,44,96.30
2008,04,02,07,45,98.00
2008,04,02,07,46,98.00
2008,04,02,07,47,98.00
2008,04,02,07,48,111.00
2008,04,02,07,49,111.30
2008,04,02,07,50,116.00
2008,04,02,07,51,117.50
2008,04,02,07,52,121.00
2008,04,02,07,53,124.00
2008,04,02,07,54,127.60
2008,04,02,07,55,131.50
2008,04,02,07,56,135.00
2008,04,02,07,57,135.40
2008,04,02,07,58,141.60
2008,04,02,07,59,144.60
2008,04,02,08,00,146.80
2008,04,02,08,01,148.00
2008,04,02,08,02,148.00
2008,04,02,08,03,153.20
2008,04,02,08,04,157.40
2008,04,02,08,05,158.00
2008,04,02,08,06,158.60
2008,04,02,08,07,167.50
2008,04,02,08,08,169.90
2008,04,02,08,09,172.90
2008,04,02,08,10,174.00
2008,04,02,08,11,177.80
2008,04,02,08,12,182.50
2008,04,02,08,13,183.00
2008,04,02,08,14,187.50
2008,04,02,08,15,188.40
2008,04,02,08,16,192.70
2008,04,02,08,17,196.50
2008,04,02,08,18,199.60
2008,04,02,08,19,201.40
2008,04,02,08,20,205.00
2008,04,02,08,21,206.70
2008,04,02,08,22,209.00
2008,04,02,08,23,209.40
2008,04,02,08,24,216.30
2008,04,02,08,25,218.90
2008,04,02,08,26,221.90
2008,04,02,08,27,224.10
2008,04,02,08,28,226.50
2008,04,02,08,29,229.40
2008,04,02,08,30,231.90
2008,04,02,08,31,232.00
2008,04,02,08,32,232.00
2008,04,02,08,33,234.20
2008,04,02,08,34,241.00
2008,04,02,08,35,244.50
2008,04,02,08,36,248.00
2008,04,02,08,37,249.80
2008,04,02,08,38,251.00
2008,04,02,08,39,255.80
2008,04,02,08,40,260.00
2008,04,02,08,41,262.00
2008,04,02,08,42,262.50
2008,04,02,08,43,264.40
2008,04,02,08,44,267.10
2008,04,02,08,45,270.40
2008,04,02,08,46,271.80
2008,04,02,08,47,272.00
2008,04,02,08,48,275.40
2008,04,02,08,49,281.30
2008,04,02,08,50,283.00
2008,04,02,08,51,283.00
2008,04,02,08,52,286.30
2008,04,02,08,53,292.40
2008,04,02,08,54,294.80
2008,04,02,08,55,298.50
2008,04,02,08,56,299.00
2008,04,02,08,57,302.10
2008,04,02,08,58,304.20
2008,04,02,08,59,306.90
2008,04,02,09,00,309.80
2008,04,02,09,01,313.00
2008,04,02,09,02,315.50
2008,04,02,09,03,317.50
2008,04,02,09,04,319.40
2008,04,02,09,05,322.00
2008,04,02,09,06,322.30
2008,04,02,09,07,327.40
2008,04,02,09,08,329.90
2008,04,02,09,09,332.00
2008,04,02,09,10,335.40
2008,04,02,09,11,338.60
2008,04,02,09,12,342.20
2008,04,02,09,13,344.90
2008,04,02,09,14,346.00
2008,04,02,09,15,350.20
2008,04,02,09,16,352.00
2008,04,02,09,17,353.90
2008,04,02,09,18,358.50
2008,04,02,09,19,361.00
2008,04,02,09,20,362.00
2008,04,02,09,21,365.50
2008,04,02,09,22,366.00
2008,04,02,09,23,369.20
2008,04,02,09,24,372.80
2008,04,02,09,25,372.20
2008,04,02,09,26,377.80
2008,04,02,09,27,381.00
2008,04,02,09,28,385.80
2008,04,02,09,29,388.00
2008,04,02,09,30,389.90
2008,04,02,09,31,390.00
2008,04,02,09,32,396.00
2008,04,02,09,33,397.20
2008,04,02,09,34,401.60
2008,04,02,09,35,405.20
2008,04,02,09,36,408.00
2008,04,02,09,37,408.00
2008,04,02,09,38,412.90
2008,04,02,09,39,417.00
2008,04,02,09,40,417.00
2008,04,02,09,41,416.80
2008,04,02,09,42,416.80
2008,04,02,09,43,425.10
2008,04,02,09,44,429.00
2008,04,02,09,45,431.00
2008,04,02,09,46,433.00
2008,04,02,09,47,436.00
2008,04,02,09,48,436.00
2008,04,02,09,49,438.90
2008,04,02,09,50,439.90
2008,04,02,09,51,445.30
2008,04,02,09,52,446.00
2008,04,02,09,53,450.50
2008,04,02,09,54,456.10
2008,04,02,09,55,457.00
2008,04,02,09,56,457.00
2008,04,02,09,57,462.00
2008,04,02,09,58,466.00
2008,04,02,09,59,466.80
2008,04,02,10,00,469.60
2008,04,02,10,01,470.00
2008,04,02,10,02,469.00
2008,04,02,10,03,469.00
2008,04,02,10,04,475.20
2008,04,02,10,05,476.00
2008,04,02,10,06,485.90
2008,04,02,10,07,489.10
2008,04,02,10,08,490.40
2008,04,02,10,09,492.00
2008,04,02,10,10,493.70
2008,04,02,10,11,496.00
2008,04,02,10,12,500.10
2008,04,02,10,13,501.00
2008,04,02,10,14,504.00
2008,04,02,10,15,504.80
2008,04,02,10,16,510.00
2008,04,02,10,17,510.00
2008,04,02,10,18,514.00
2008,04,02,10,19,518.30
2008,04,02,10,20,522.80
2008,04,02,10,21,526.60
2008,04,02,10,22,527.00
2008,04,02,10,23,529.00
2008,04,02,10,24,529.90
2008,04,02,10,25,538.20
2008,04,02,10,26,537.60
2008,04,02,10,27,512.40
2008,04,02,10,28,507.40
2008,04,02,10,29,515.30
2008,04,02,10,30,526.40
2008,04,02,10,31,527.00
2008,04,02,10,32,540.50
2008,04,02,10,33,548.80
2008,04,02,10,34,554.00
2008,04,02,10,35,559.00
2008,04,02,10,36,561.20
2008,04,02,10,37,558.40
2008,04,02,10,38,555.00
2008,04,02,10,39,568.00
2008,04,02,10,40,566.00
2008,04,02,10,41,571.40
2008,04,02,10,42,578.50
2008,04,02,10,43,587.60
2008,04,02,10,44,590.50
2008,04,02,10,45,590.00
2008,04,02,10,46,593.20
2008,04,02,10,47,594.00
2008,04,02,10,48,594.00
2008,04,02,10,49,594.00
2008,04,02,10,50,595.30
2008,04,02,10,51,601.00
2008,04,02,10,52,600.30
2008,04,02,10,53,599.00
2008,04,02,10,54,601.20
2008,04,02,10,55,554.50
2008,04,02,10,56,604.20
2008,04,02,10,57,608.00
2008,04,02,10,58,608.00
2008,04,02,10,59,608.00
2008,04,02,11,00,608.00
2008,04,02,11,01,610.00
2008,04,02,11,02,612.60
2008,04,02,11,03,613.00
2008,04,02,11,04,613.00
2008,04,02,11,05,619.00
2008,04,02,11,06,619.00
2008,04,02,11,07,621.00
2008,04,02,11,08,621.80
2008,04,02,11,09,624.80
2008,04,02,11,10,626.80
2008,04,02,11,11,628.00
2008,04,02,11,12,631.00
2008,04,02,11,13,633.00
2008,04,02,11,14,633.00
2008,04,02,11,15,636.00
2008,04,02,11,16,636.40
2008,04,02,11,17,638.60
2008,04,02,11,18,640.00
2008,04,02,11,19,640.90
2008,04,02,11,20,642.70
2008,04,02,11,21,644.80
2008,04,02,11,22,645.00
2008,04,02,11,23,649.00
2008,04,02,11,24,649.00
2008,04,02,11,25,649.80
2008,04,02,11,26,652.00
2008,04,02,11,27,654.00
2008,04,02,11,28,656.00
2008,04,02,11,29,658.20
2008,04,02,11,30,659.00
2008,04,02,11,31,659.00
2008,04,02,11,32,662.80
2008,04,02,11,33,663.10
2008,04,02,11,34,664.00
2008,04,02,11,35,664.00
2008,04,02,11,36,667.40
2008,04,02,11,37,670.60
2008,04,02,11,38,672.70
2008,04,02,11,39,674.90
2008,04,02,11,40,675.00
2008,04,02,11,41,677.20
2008,04,02,11,42,680.30
2008,04,02,11,43,681.40
2008,04,02,11,44,681.10
2008,04,02,11,45,684.20
2008,04,02,11,46,686.00
2008,04,02,11,47,686.00
2008,04,02,11,48,686.00
2008,04,02,11,49,689.00
2008,04,02,11,50,691.40
2008,04,02,11,51,693.30
2008,04,02,11,52,694.00
2008,04,02,11,53,694.00
2008,04,02,11,54,694.00
2008,04,02,11,55,695.30
2008,04,02,11,56,700.00
2008,04,02,11,57,700.00
2008,04,02,11,58,701.00
2008,04,02,11,59,700.10
2008,04,02,12,00,698.20
2008,04,02,12,01,704.80
2008,04,02,12,02,705.90
2008,04,02,12,03,705.00
2008,04,02,12,04,706.60
2008,04,02,12,05,707.90
2008,04,02,12,06,710.00
2008,04,02,12,07,710.30
2008,04,02,12,08,712.00
2008,04,02,12,09,712.00
2008,04,02,12,10,712.80
2008,04,02,12,11,714.60
2008,04,02,12,12,716.50
2008,04,02,12,13,718.80
2008,04,02,12,14,719.00
2008,04,02,12,15,719.00
2008,04,02,12,16,721.90
2008,04,02,12,17,721.00
2008,04,02,12,18,721.30
2008,04,02,12,19,723.10
2008,04,02,12,20,724.00
2008,04,02,12,21,724.00
2008,04,02,12,22,724.00
2008,04,02,12,23,722.00
2008,04,02,12,24,723.70
2008,04,02,12,25,722.50
2008,04,02,12,26,724.80
2008,04,02,12,27,726.80
2008,04,02,12,28,728.00
2008,04,02,12,29,728.00
2008,04,02,12,30,728.80
2008,04,02,12,31,729.00
2008,04,02,12,32,731.10
2008,04,02,12,33,733.20
2008,04,02,12,34,735.00
2008,04,02,12,35,735.00
2008,04,02,12,36,732.60
2008,04,02,12,37,732.20
2008,04,02,12,38,733.00
2008,04,02,12,39,733.00
2008,04,02,12,40,734.70
2008,04,02,12,41,737.20
2008,04,02,12,42,739.60
2008,04,02,12,43,738.60
2008,04,02,12,44,740.90
2008,04,02,12,45,740.90
2008,04,02,12,46,740.00
2008,04,02,12,47,740.00
2008,04,02,12,48,740.00
2008,04,02,12,49,741.80
2008,04,02,12,50,743.90
2008,04,02,12,51,742.40
2008,04,02,12,52,744.00
2008,04,02,12,53,744.60
2008,04,02,12,54,746.20
2008,04,02,12,55,747.00
2008,04,02,12,56,747.00
2008,04,02,12,57,747.00
2008,04,02,12,58,749.00
2008,04,02,12,59,749.00
2008,04,02,13,00,749.00
2008,04,02,13,01,749.70
2008,04,02,13,02,751.50
2008,04,02,13,03,752.00
2008,04,02,13,04,752.00
2008,04,02,13,05,752.00
2008,04,02,13,06,752.00
2008,04,02,13,07,754.00
2008,04,02,13,08,754.00
2008,04,02,13,09,753.20
2008,04,02,13,10,752.90
2008,04,02,13,11,755.20
2008,04,02,13,12,757.40
2008,04,02,13,13,758.00
2008,04,02,13,14,756.00
2008,04,02,13,15,756.00
2008,04,02,13,16,756.00
2008,04,02,13,17,756.00
2008,04,02,13,18,756.90
2008,04,02,13,19,758.00
2008,04,02,13,20,756.60
2008,04,02,13,21,757.30
2008,04,02,13,22,756.20
2008,04,02,13,23,756.00
2008,04,02,13,24,757.90
2008,04,02,13,25,758.20
2008,04,02,13,26,758.60
2008,04,02,13,27,758.00
2008,04,02,13,28,758.00
2008,04,02,13,29,758.70
2008,04,02,13,30,758.20
2008,04,02,13,31,756.10
2008,04,02,13,32,758.00
2008,04,02,13,33,756.20
2008,04,02,13,34,757.00
2008,04,02,13,35,754.00
2008,04,02,13,36,754.00
2008,04,02,13,37,754.00
2008,04,02,13,38,754.00
2008,04,02,13,39,754.00
2008,04,02,13,40,754.00
2008,04,02,13,41,754.00
2008,04,02,13,42,754.30
2008,04,02,13,43,756.60
2008,04,02,13,44,757.10
2008,04,02,13,45,756.00
2008,04,02,13,46,754.90
2008,04,02,13,47,754.00
2008,04,02,13,48,754.00
2008,04,02,13,49,756.00
2008,04,02,13,50,755.90
2008,04,02,13,51,753.60
2008,04,02,13,52,752.00
2008,04,02,13,53,752.00
2008,04,02,13,54,752.00
2008,04,02,13,55,752.00
2008,04,02,13,56,751.30
2008,04,02,13,57,751.00
2008,04,02,13,58,749.00
2008,04,02,13,59,749.00
2008,04,02,14,00,748.00
2008,04,02,14,01,745.00
2008,04,02,14,02,745.00
2008,04,02,14,03,746.10
2008,04,02,14,04,747.00
2008,04,02,14,05,745.60
2008,04,02,14,06,744.00
2008,04,02,14,07,744.10
2008,04,02,14,08,744.40
2008,04,02,14,09,742.80
2008,04,02,14,10,744.00
2008,04,02,14,11,743.10
2008,04,02,14,12,740.60
2008,04,02,14,13,740.00
2008,04,02,14,14,738.40
2008,04,02,14,15,738.00
2008,04,02,14,16,736.70
2008,04,02,14,17,735.50
2008,04,02,14,18,736.20
2008,04,02,14,19,733.00
2008,04,02,14,20,732.00
2008,04,02,14,21,731.30
2008,04,02,14,22,731.00
2008,04,02,14,23,729.40
2008,04,02,14,24,729.00
2008,04,02,14,25,729.00
2008,04,02,14,26,728.00
2008,04,02,14,27,726.00
2008,04,02,14,28,726.00
2008,04,02,14,29,723.10
2008,04,02,14,30,722.00
2008,04,02,14,31,722.00
2008,04,02,14,32,721.00
2008,04,02,14,33,720.90
2008,04,02,14,34,719.00
2008,04,02,14,35,719.00
2008,04,02,14,36,718.10
2008,04,02,14,37,715.80
2008,04,02,14,38,715.00
2008,04,02,14,39,714.10
2008,04,02,14,40,714.00
2008,04,02,14,41,710.40
2008,04,02,14,42,710.00
2008,04,02,14,43,710.00
2008,04,02,14,44,709.10
2008,04,02,14,45,708.00
2008,04,02,14,46,708.00
2008,04,02,14,47,708.00
2008,04,02,14,48,708.00
2008,04,02,14,49,703.80
2008,04,02,14,50,701.10
2008,04,02,14,51,700.80
2008,04,02,14,52,700.30
2008,04,02,14,53,699.80
2008,04,02,14,54,698.00
2008,04,02,14,55,696.60
2008,04,02,14,56,696.00
2008,04,02,14,57,694.10
2008,04,02,14,58,691.00
2008,04,02,14,59,691.00
2008,04,02,15,00,690.50
2008,04,02,15,01,689.00
2008,04,02,15,02,687.80
2008,04,02,15,03,687.00
2008,04,02,15,04,686.20
2008,04,02,15,05,684.20
2008,04,02,15,06,682.00
2008,04,02,15,07,680.20
2008,04,02,15,08,679.00
2008,04,02,15,09,677.80
2008,04,02,15,10,674.30
2008,04,02,15,11,673.00
2008,04,02,15,12,671.60
2008,04,02,15,13,671.00
2008,04,02,15,14,668.20
2008,04,02,15,15,668.00
2008,04,02,15,16,666.00
2008,04,02,15,17,665.60
2008,04,02,15,18,663.80
2008,04,02,15,19,663.00
2008,04,02,15,20,659.60
2008,04,02,15,21,657.00
2008,04,02,15,22,656.10
2008,04,02,15,23,656.00
2008,04,02,15,24,654.00
2008,04,02,15,25,650.00
2008,04,02,15,26,649.70
2008,04,02,15,27,647.40
2008,04,02,15,28,645.00
2008,04,02,15,29,643.10
2008,04,02,15,30,642.80
2008,04,02,15,31,643.00
2008,04,02,15,32,643.00
2008,04,02,15,33,643.00
2008,04,02,15,34,641.70
2008,04,02,15,35,635.10
2008,04,02,15,36,632.30
2008,04,02,15,37,629.30
2008,04,02,15,38,628.00
2008,04,02,15,39,626.40
2008,04,02,15,40,622.20
2008,04,02,15,41,622.00
2008,04,02,15,42,618.50
2008,04,02,15,43,615.50
2008,04,02,15,44,616.20
2008,04,02,15,45,615.00
2008,04,02,15,46,613.10
2008,04,02,15,47,609.00
2008,04,02,15,48,606.60
2008,04,02,15,49,605.20
2008,04,02,15,50,604.60
2008,04,02,15,51,598.80
2008,04,02,15,52,598.00
2008,04,02,15,53,597.30
2008,04,02,15,54,595.00
2008,04,02,15,55,591.90
2008,04,02,15,56,591.00
2008,04,02,15,57,589.50
2008,04,02,15,58,585.00
2008,04,02,15,59,584.90
2008,04,02,16,00,583.20
2008,04,02,16,01,579.10
2008,04,02,16,02,576.10
2008,04,02,16,03,574.10
2008,04,02,16,04,571.40
2008,04,02,16,05,571.00
2008,04,02,16,06,568.60
2008,04,02,16,07,568.00
2008,04,02,16,08,564.00
2008,04,02,16,09,564.00
2008,04,02,16,10,561.40
2008,04,02,16,11,556.00
2008,04,02,16,12,555.00
2008,04,02,16,13,554.20
2008,04,02,16,14,552.20
2008,04,02,16,15,548.00
2008,04,02,16,16,546.80
2008,04,02,16,17,541.00
2008,04,02,16,18,541.00
2008,04,02,16,19,539.70
2008,04,02,16,20,536.80
2008,04,02,16,21,534.40
2008,04,02,16,22,531.60
2008,04,02,16,23,527.20
2008,04,02,16,24,527.00
2008,04,02,16,25,525.80
2008,04,02,16,26,522.80
2008,04,02,16,27,518.20
2008,04,02,16,28,517.00
2008,04,02,16,29,514.10
2008,04,02,16,30,511.20
2008,04,02,16,31,510.00
2008,04,02,16,32,510.00
2008,04,02,16,33,509.60
2008,04,02,16,34,502.60
2008,04,02,16,35,501.00
2008,04,02,16,36,498.80
2008,04,02,16,37,495.10
2008,04,02,16,38,491.20
2008,04,02,16,39,489.20
2008,04,02,16,40,487.50
2008,04,02,16,41,485.00
2008,04,02,16,42,486.40
2008,04,02,16,43,481.10
2008,04,02,16,44,478.00
2008,04,02,16,45,477.10
2008,04,02,16,46,475.40
2008,04,02,16,47,471.90
2008,04,02,16,48,468.20
2008,04,02,16,49,466.00
2008,04,02,16,50,464.00
2008,04,02,16,51,463.70
2008,04,02,16,52,460.40
2008,04,02,16,53,458.10
2008,04,02,16,54,457.00
2008,04,02,16,55,457.00
2008,04,02,16,56,451.80
2008,04,02,16,57,448.10
2008,04,02,16,58,445.00
2008,04,02,16,59,444.80
2008,04,02,17,00,440.20
2008,04,02,17,01,438.00
2008,04,02,17,02,435.90
2008,04,02,17,03,432.00
2008,04,02,17,04,432.00
2008,04,02,17,05,425.90
2008,04,02,17,06,422.20
2008,04,02,17,07,420.00
2008,04,02,17,08,417.80
2008,04,02,17,09,415.00
2008,04,02,17,10,413.50
2008,04,02,17,11,409.00
2008,04,02,17,12,406.80
2008,04,02,17,13,406.00